| time (UTC) | temp F | wind direction | speed knots | gust knots | rain 1hr in | rain 24hr in | rain mn in | humidity % | barometer mb |
| 20260506084910 | 65 | 141 | 2.6 | 6.1 | 0.00 | 0.00 | 0.00 | 82 | 1015.5 |
| 20260506084409 | 65 | 130 | 2.6 | 4.3 | 0.00 | 0.00 | 0.00 | 82 | 1015.5 |
| 20260506083911 | 65 | 139 | 1.7 | 4.3 | 0.00 | 0.00 | 0.00 | 82 | 1015.5 |
| 20260506082909 | 65 | 140 | 1.7 | 4.3 | 0.00 | 0.00 | 0.00 | 82 | 1015.4 |
| 20260506082409 | 65 | 126 | 1.7 | 6.1 | 0.00 | 0.00 | 0.00 | 82 | 1015.4 |
| 20260506081911 | 65 | 127 | 2.6 | 6.1 | 0.00 | 0.00 | 0.00 | 82 | 1015.4 |
| 20260506081409 | 65 | 141 | 2.6 | 5.2 | 0.00 | 0.00 | 0.00 | 81 | 1015.4 |
| 20260506080909 | 65 | 144 | 1.7 | 4.3 | 0.00 | 0.00 | 0.00 | 82 | 1015.4 |
| 20260506080409 | 65 | 113 | 1.7 | 2.6 | 0.00 | 0.00 | 0.00 | 82 | 1015.3 |
| 20260506073409 | 64 | 122 | 1.7 | 2.6 | 0.00 | 0.00 | 0.00 | 85 | 1015.1 |
| 20260506072910 | 64 | 106 | 1.7 | 2.6 | 0.00 | 0.00 | 0.00 | 85 | 1015.1 |
| 20260506072410 | 64 | 128 | 1.7 | 2.6 | 0.00 | 0.00 | 0.00 | 86 | 1015.2 |
| 20260506071910 | 64 | 139 | 2.6 | 4.3 | 0.00 | 0.00 | 0.00 | 86 | 1015.3 |
| 20260506070909 | 64 | 158 | 1.7 | 2.6 | 0.00 | 0.00 | 0.00 | 86 | 1015.5 |
| 20260506062409 | 63 | 129 | 1.7 | 4.3 | 0.00 | 0.00 | 0.00 | 89 | 1015.1 |
| 20260506061909 | 63 | 134 | 1.7 | 2.6 | 0.00 | 0.00 | 0.00 | 90 | 1015.1 |
| 20260506061410 | 63 | 129 | 1.7 | 2.6 | 0.00 | 0.00 | 0.00 | 90 | 1015.1 |
| 20260506060909 | 63 | 127 | 1.7 | 2.6 | 0.00 | 0.00 | 0.00 | 91 | 1015.1 |
| 20260506060410 | 63 | 148 | 1.7 | 2.6 | 0.00 | 0.00 | 0.00 | 91 | 1015.0 |
| 20260506050909 | 62 | 125 | 1.7 | 2.6 | 0.00 | 0.00 | 0.00 | 93 | 1014.5 |
| 20260506050410 | 62 | 111 | 1.7 | 2.6 | 0.00 | 0.00 | 0.00 | 93 | 1014.4 |
| 20260506044910 | 62 | 106 | 1.7 | 2.6 | 0.00 | 0.00 | 0.00 | 93 | 1014.7 |
| 20260506044414 | 62 | 104 | 0.9 | 2.6 | 0.00 | 0.00 | 0.00 | 93 | 1014.7 |
| 20260506043910 | 62 | 134 | 1.7 | 2.6 | 0.00 | 0.00 | 0.00 | 93 | 1014.7 |
| 20260506043411 | 62 | 109 | 1.7 | 2.6 | 0.00 | 0.00 | 0.00 | 93 | 1014.6 |
| 20260506042410 | 62 | 109 | 0.9 | 2.6 | 0.00 | 0.00 | 0.00 | 93 | 1014.5 |
| 20260506041910 | 62 | 107 | 1.7 | 2.6 | 0.00 | 0.00 | 0.00 | 93 | 1014.5 |
| 20260506041410 | 62 | 107 | 0.9 | 2.6 | 0.00 | 0.00 | 0.00 | 93 | 1014.4 |
| 20260506040910 | 62 | 139 | 1.7 | 2.6 | 0.00 | 0.00 | 0.00 | 93 | 1014.4 |
| 20260506040410 | 62 | 91 | 0.9 | 2.6 | 0.00 | 0.00 | 0.00 | 93 | 1014.4 |
| 20260506035910 | 62 | 146 | 0.9 | 2.6 | 0.00 | 0.00 | 0.00 | 93 | 1014.3 |
| 20260506035409 | 62 | 106 | 0.9 | 2.6 | 0.00 | 0.00 | 0.00 | 93 | 1014.2 |
| 20260506034909 | 62 | 103 | 1.7 | 2.6 | 0.00 | 0.00 | 0.00 | 93 | 1014.2 |
| 20260506034414 | 62 | 62 | 1.7 | 2.6 | 0.00 | 0.00 | 0.00 | 92 | 1014.1 |
| 20260506033910 | 62 | 91 | 1.7 | 2.6 | 0.00 | 0.00 | 0.00 | 92 | 1014.2 |
| 20260506033410 | 62 | 101 | 0.9 | 2.6 | 0.00 | 0.00 | 0.00 | 92 | 1014.2 |
| 20260506032909 | 62 | 84 | 1.7 | 2.6 | 0.00 | 0.00 | 0.00 | 92 | 1014.2 |
| 20260506032411 | 62 | 85 | 1.7 | 5.2 | 0.00 | 0.00 | 0.00 | 92 | 1014.3 |
| 20260506031910 | 62 | 80 | 1.7 | 2.6 | 0.00 | 0.00 | 0.00 | 92 | 1014.3 |
| 20260506031410 | 62 | 72 | 1.7 | 2.6 | 0.00 | 0.00 | 0.00 | 92 | 1014.3 |
| 20260506030409 | 62 | 94 | 0.9 | 2.6 | 0.00 | 0.00 | 0.00 | 92 | 1014.3 |
| 20260506025910 | 62 | 77 | 1.7 | 2.6 | 0.00 | 0.00 | 0.00 | 92 | 1014.3 |
| 20260506024909 | 62 | 95 | 1.7 | 2.6 | 0.00 | 0.00 | 0.00 | 92 | 1014.3 |
| 20260506024415 | 62 | 79 | 1.7 | 2.6 | 0.00 | 0.00 | 0.00 | 92 | 1014.3 |
| 20260506023409 | 62 | 83 | 1.7 | 2.6 | 0.00 | 0.00 | 0.00 | 92 | 1014.3 |
| 20260506022909 | 62 | 51 | 1.7 | 4.3 | 0.00 | 0.00 | 0.00 | 91 | 1014.3 |
| 20260506022409 | 62 | 89 | 1.7 | 4.3 | 0.00 | 0.00 | 0.00 | 91 | 1014.3 |
| 20260506021910 | 62 | 77 | 1.7 | 2.6 | 0.00 | 0.00 | 0.00 | 91 | 1014.2 |
| 20260506021410 | 62 | 75 | 1.7 | 2.6 | 0.00 | 0.00 | 0.00 | 91 | 1014.2 |
| 20260506020409 | 62 | 81 | 1.7 | 2.6 | 0.00 | 0.00 | 0.00 | 91 | 1014.3 |
| 20260506015910 | 62 | 74 | 1.7 | 2.6 | 0.00 | 0.00 | 0.00 | 91 | 1014.3 |
| 20260506015410 | 62 | 77 | 1.7 | 2.6 | 0.00 | 0.00 | 0.00 | 91 | 1014.3 |
| 20260506014909 | 62 | 76 | 0.9 | 2.6 | 0.00 | 0.00 | 0.00 | 91 | 1014.3 |
| 20260506014420 | 62 | 83 | 1.7 | 2.6 | 0.00 | 0.00 | 0.00 | 91 | 1014.3 |
| 20260506013910 | 62 | 62 | 1.7 | 2.6 | 0.00 | 0.00 | 0.00 | 91 | 1014.4 |
| 20260506013410 | 62 | 64 | 1.7 | 2.6 | 0.00 | 0.00 | 0.00 | 91 | 1014.4 |
| 20260506012909 | 62 | 62 | 1.7 | 2.6 | 0.00 | 0.00 | 0.00 | 91 | 1014.3 |
| 20260506012409 | 62 | 54 | 1.7 | 2.6 | 0.00 | 0.00 | 0.00 | 90 | 1014.3 |
| 20260506011409 | 62 | 86 | 1.7 | 2.6 | 0.00 | 0.00 | 0.00 | 90 | 1014.4 |
| 20260506010910 | 62 | 54 | 1.7 | 2.6 | 0.00 | 0.00 | 0.00 | 90 | 1014.5 |
| 20260506010410 | 62 | 75 | 1.7 | 2.6 | 0.00 | 0.00 | 0.00 | 90 | 1014.4 |
| 20260506004910 | 62 | 31 | 1.7 | 2.6 | 0.00 | 0.00 | 0.00 | 90 | 1014.4 |
| 20260506004411 | 62 | 39 | 0.9 | 2.6 | 0.00 | 0.00 | 0.00 | 90 | 1014.4 |
| 20260506003410 | 62 | 62 | 1.7 | 2.6 | 0.00 | 0.00 | 0.00 | 90 | 1014.5 |
| 20260506002910 | 62 | 70 | 1.7 | 2.6 | 0.00 | 0.00 | 0.00 | 90 | 1014.5 |
| 20260506002410 | 62 | 61 | 1.7 | 2.6 | 0.00 | 0.00 | 0.00 | 90 | 1014.6 |
| 20260506001909 | 62 | 77 | 1.7 | 4.3 | 0.00 | 0.00 | 0.00 | 90 | 1014.6 |
| 20260505235409 | 62 | 88 | 1.7 | 2.6 | 0.00 | 0.00 | 0.00 | 90 | 1014.8 |
| 20260505234909 | 62 | 69 | 0.9 | 2.6 | 0.00 | 0.00 | 0.00 | 90 | 1014.8 |
| 20260505234409 | 62 | 52 | 1.7 | 2.6 | 0.00 | 0.00 | 0.00 | 90 | 1014.9 |
| 20260505233909 | 62 | 70 | 1.7 | 2.6 | 0.00 | 0.00 | 0.00 | 90 | 1014.9 |
| 20260505232909 | 62 | 71 | 0.9 | 2.6 | 0.00 | 0.00 | 0.00 | 90 | 1014.9 |
| 20260505232409 | 62 | 44 | 1.7 | 2.6 | 0.00 | 0.00 | 0.00 | 90 | 1014.9 |
| 20260505231909 | 62 | 80 | 1.7 | 2.6 | 0.00 | 0.00 | 0.00 | 90 | 1014.9 |
| 20260505231409 | 62 | 90 | 1.7 | 2.6 | 0.00 | 0.00 | 0.00 | 90 | 1015.0 |
| 20260505225908 | 62 | 98 | 1.7 | 2.6 | 0.00 | 0.00 | 0.00 | 90 | 1015.1 |
| 20260505225408 | 62 | 83 | 1.7 | 2.6 | 0.00 | 0.00 | 0.00 | 90 | 1015.2 |
| 20260505224909 | 62 | 88 | 1.7 | 2.6 | 0.00 | 0.00 | 0.00 | 90 | 1015.2 |
| 20260505224410 | 62 | 62 | 1.7 | 5.2 | 0.00 | 0.00 | 0.00 | 90 | 1015.1 |
| 20260505223409 | 62 | 57 | 1.7 | 4.3 | 0.00 | 0.00 | 0.00 | 90 | 1015.2 |
| 20260505222909 | 62 | 56 | 1.7 | 2.6 | 0.00 | 0.00 | 0.00 | 90 | 1015.2 |
| 20260505222409 | 62 | 50 | 1.7 | 2.6 | 0.00 | 0.00 | 0.00 | 90 | 1015.3 |
| 20260505221909 | 62 | 78 | 1.7 | 2.6 | 0.00 | 0.00 | 0.00 | 90 | 1015.3 |
| 20260505220909 | 62 | 66 | 1.7 | 2.6 | 0.00 | 0.00 | 0.00 | 90 | 1015.5 |
| 20260505215910 | 62 | 79 | 0.9 | 2.6 | 0.00 | 0.00 | 0.00 | 90 | 1015.5 |
| 20260505215410 | 62 | 115 | 0.9 | 2.6 | 0.00 | 0.00 | 0.00 | 90 | 1015.5 |
| 20260505214909 | 62 | 94 | 0.9 | 2.6 | 0.00 | 0.00 | 0.00 | 90 | 1015.4 |
| 20260505214411 | 62 | 105 | 1.7 | 2.6 | 0.00 | 0.00 | 0.00 | 90 | 1015.5 |
| 20260505213909 | 62 | 75 | 1.7 | 2.6 | 0.00 | 0.00 | 0.00 | 90 | 1015.6 |
| 20260505213410 | 62 | 84 | 1.7 | 2.6 | 0.00 | 0.00 | 0.00 | 90 | 1015.6 |
| 20260505212910 | 62 | 79 | 0.9 | 2.6 | 0.00 | 0.00 | 0.00 | 90 | 1015.6 |
| 20260505212410 | 62 | 113 | 0.9 | 2.6 | 0.00 | 0.00 | 0.00 | 90 | 1015.7 |
| 20260505211910 | 62 | 69 | 1.7 | 2.6 | 0.00 | 0.00 | 0.00 | 90 | 1015.8 |
| 20260505211410 | 62 | 66 | 1.7 | 2.6 | 0.00 | 0.00 | 0.00 | 90 | 1015.7 |
| 20260505210910 | 62 | 57 | 1.7 | 2.6 | 0.00 | 0.00 | 0.00 | 89 | 1015.8 |
| 20260505210409 | 62 | 80 | 0.9 | 2.6 | 0.00 | 0.00 | 0.00 | 89 | 1015.7 |
| 20260505205910 | 62 | 91 | 1.7 | 2.6 | 0.00 | 0.00 | 0.00 | 89 | 1015.8 |
| 20260505205410 | 62 | 90 | 1.7 | 2.6 | 0.00 | 0.00 | 0.00 | 89 | 1015.9 |
| 20260505204910 | 62 | 82 | 1.7 | 2.6 | 0.00 | 0.00 | 0.00 | 89 | 1015.9 |
| 20260505203909 | 62 | 91 | 1.7 | 2.6 | 0.00 | 0.00 | 0.00 | 89 | 1016.0 |
| 20260505203410 | 62 | 91 | 1.7 | 2.6 | 0.00 | 0.00 | 0.00 | 88 | 1016.0 |
| 20260505202909 | 62 | 78 | 1.7 | 2.6 | 0.00 | 0.00 | 0.00 | 88 | 1016.0 |
| 20260505202410 | 62 | 92 | 1.7 | 2.6 | 0.00 | 0.00 | 0.00 | 88 | 1015.9 |
| 20260505201909 | 62 | 117 | 1.7 | 2.6 | 0.00 | 0.00 | 0.00 | 88 | 1016.0 |
| 20260505201411 | 62 | 82 | 1.7 | 2.6 | 0.00 | 0.00 | 0.00 | 88 | 1016.1 |
| 20260505200909 | 62 | 87 | 0.9 | 1.7 | 0.00 | 0.00 | 0.00 | 88 | 1016.1 |
| 20260505200409 | 62 | 91 | 1.7 | 4.3 | 0.00 | 0.00 | 0.00 | 88 | 1016.1 |
| 20260505195408 | 62 | 88 | 1.7 | 2.6 | 0.00 | 0.00 | 0.00 | 88 | 1016.0 |
| 20260505194909 | 62 | 123 | 0.9 | 2.6 | 0.00 | 0.00 | 0.00 | 88 | 1015.9 |
| 20260505193909 | 62 | 98 | 1.7 | 2.6 | 0.00 | 0.00 | 0.00 | 88 | 1015.9 |
| 20260505193409 | 62 | 82 | 0.9 | 2.6 | 0.00 | 0.00 | 0.00 | 88 | 1016.0 |
| 20260505192909 | 62 | 72 | 1.7 | 2.6 | 0.00 | 0.00 | 0.00 | 88 | 1016.0 |
| 20260505191909 | 63 | 76 | 1.7 | 2.6 | 0.00 | 0.00 | 0.00 | 87 | 1016.0 |
| 20260505191410 | 63 | 89 | 1.7 | 2.6 | 0.00 | 0.00 | 0.00 | 87 | 1016.0 |
| 20260505190909 | 63 | 111 | 1.7 | 2.6 | 0.00 | 0.00 | 0.00 | 87 | 1015.9 |
| 20260505185910 | 63 | 110 | 0.9 | 2.6 | 0.00 | 0.00 | 0.00 | 87 | 1015.8 |
| 20260505185409 | 63 | 110 | 0.9 | 2.6 | 0.00 | 0.00 | 0.00 | 87 | 1015.7 |
| 20260505184909 | 63 | 77 | 1.7 | 2.6 | 0.00 | 0.00 | 0.00 | 87 | 1015.7 |
| 20260505184415 | 63 | 73 | 1.7 | 2.6 | 0.00 | 0.00 | 0.00 | 87 | 1015.7 |
| 20260505183909 | 63 | 74 | 1.7 | 2.6 | 0.00 | 0.00 | 0.00 | 86 | 1015.7 |
| 20260505182408 | 64 | 88 | 1.7 | 2.6 | 0.00 | 0.00 | 0.00 | 86 | 1015.6 |
| 20260505181409 | 64 | 111 | 0.9 | 2.6 | 0.00 | 0.00 | 0.00 | 86 | 1015.6 |
| 20260505180909 | 64 | 115 | 1.7 | 2.6 | 0.00 | 0.00 | 0.00 | 86 | 1015.7 |
| 20260505180409 | 64 | 110 | 0.9 | 2.6 | 0.00 | 0.00 | 0.00 | 86 | 1015.7 |
| 20260505175408 | 64 | 85 | 0.9 | 2.6 | 0.00 | 0.00 | 0.00 | 85 | 1015.7 |
| 20260505174909 | 64 | 115 | 0.9 | 2.6 | 0.00 | 0.00 | 0.00 | 85 | 1015.7 |
| 20260505173909 | 64 | 108 | 0.9 | 2.6 | 0.00 | 0.00 | 0.00 | 85 | 1015.7 |
| 20260505173409 | 64 | 118 | 0.9 | 2.6 | 0.00 | 0.00 | 0.00 | 85 | 1015.7 |
| 20260505172410 | 64 | 137 | 0.9 | 2.6 | 0.00 | 0.00 | 0.00 | 84 | 1015.6 |
| 20260505171909 | 64 | 101 | 1.7 | 2.6 | 0.00 | 0.00 | 0.00 | 84 | 1015.7 |
| 20260505170909 | 65 | 89 | 0.9 | 2.6 | 0.00 | 0.00 | 0.00 | 84 | 1015.6 |
| 20260505165909 | 65 | 107 | 1.7 | 2.6 | 0.00 | 0.00 | 0.00 | 83 | 1015.6 |
| 20260505165408 | 65 | 152 | 1.7 | 2.6 | 0.00 | 0.00 | 0.00 | 83 | 1015.5 |
| 20260505164909 | 65 | 135 | 0.9 | 2.6 | 0.00 | 0.00 | 0.00 | 83 | 1015.6 |
| 20260505164417 | 65 | 132 | 0.9 | 2.6 | 0.00 | 0.00 | 0.00 | 83 | 1015.7 |
| 20260505163909 | 65 | 127 | 1.7 | 2.6 | 0.00 | 0.00 | 0.00 | 82 | 1015.8 |
| 20260505163409 | 65 | 107 | 1.7 | 2.6 | 0.00 | 0.00 | 0.00 | 82 | 1015.8 |
| 20260505162910 | 65 | 145 | 0.9 | 2.6 | 0.00 | 0.00 | 0.00 | 82 | 1015.8 |
| 20260505162409 | 65 | 125 | 1.7 | 2.6 | 0.00 | 0.00 | 0.00 | 82 | 1015.9 |
| 20260505161910 | 65 | 121 | 1.7 | 2.6 | 0.00 | 0.00 | 0.00 | 81 | 1015.9 |
| 20260505161409 | 65 | 128 | 1.7 | 2.6 | 0.00 | 0.00 | 0.00 | 81 | 1015.9 |
| 20260505160909 | 65 | 110 | 1.7 | 2.6 | 0.00 | 0.00 | 0.00 | 80 | 1015.9 |
| 20260505160409 | 65 | 126 | 1.7 | 2.6 | 0.00 | 0.00 | 0.00 | 80 | 1016.1 |
| 20260505151909 | 66 | 133 | 1.7 | 2.6 | 0.00 | 0.00 | 0.00 | 78 | 1016.1 |
| 20260505150909 | 67 | 137 | 0.9 | 2.6 | 0.00 | 0.00 | 0.00 | 77 | 1016.1 |
| 20260505140409 | 68 | 149 | 0.9 | 2.6 | 0.00 | 0.00 | 0.00 | 71 | 1016.4 |
| 20260505124910 | 66 | 93 | 1.7 | 4.3 | 0.00 | 0.00 | 0.00 | 77 | 1016.7 |
| 20260505124409 | 66 | 136 | 1.7 | 2.6 | 0.00 | 0.00 | 0.00 | 76 | 1016.7 |
| 20260505123909 | 67 | 117 | 1.7 | 2.6 | 0.00 | 0.00 | 0.00 | 76 | 1016.9 |
| 20260505123409 | 67 | 125 | 1.7 | 2.6 | 0.00 | 0.00 | 0.00 | 74 | 1017.0 |
| 20260505122909 | 67 | 247 | 0.9 | 2.6 | 0.00 | 0.00 | 0.00 | 73 | 1017.0 |
| 20260505122410 | 67 | 167 | 0.9 | 2.6 | 0.00 | 0.00 | 0.00 | 74 | 1017.0 |
| 20260505120909 | 67 | 141 | 1.7 | 2.6 | 0.00 | 0.00 | 0.00 | 74 | 1017.0 |
| 20260505115909 | 68 | 216 | 0.9 | 1.7 | 0.00 | 0.00 | 0.00 | 74 | 1017.2 |
| 20260505115409 | 67 | 134 | 1.7 | 2.6 | 0.00 | 0.00 | 0.00 | 74 | 1017.2 |
| 20260505114908 | 67 | 134 | 1.7 | 4.3 | 0.00 | 0.00 | 0.00 | 74 | 1017.1 |
| 20260505114409 | 67 | 146 | 2.6 | 2.6 | 0.00 | 0.00 | 0.00 | 73 | 1017.0 |
| 20260505113909 | 68 | 127 | 1.7 | 2.6 | 0.00 | 0.00 | 0.00 | 75 | 1016.9 |
| 20260505113409 | 68 | 112 | 1.7 | 2.6 | 0.00 | 0.00 | 0.00 | 75 | 1017.0 |
| 20260505112908 | 68 | 111 | 1.7 | 2.6 | 0.00 | 0.00 | 0.00 | 77 | 1017.0 |
| 20260505112408 | 68 | 108 | 1.7 | 2.6 | 0.00 | 0.00 | 0.00 | 76 | 1017.0 |
| 20260505111909 | 68 | 146 | 2.6 | 5.2 | 0.00 | 0.00 | 0.00 | 73 | 1016.9 |
| 20260505111409 | 69 | 140 | 0.9 | 2.6 | 0.00 | 0.00 | 0.00 | 74 | 1016.8 |
| 20260505110409 | 69 | 149 | 1.7 | 2.6 | 0.00 | 0.00 | 0.00 | 74 | 1016.9 |
| 20260505101408 | 69 | 123 | 0.9 | 2.6 | 0.00 | 0.00 | 0.00 | 71 | 1016.8 |
| 20260505095908 | 68 | 126 | 1.7 | 2.6 | 0.00 | 0.00 | 0.00 | 71 | 1017.0 |
| 20260505095410 | 68 | 131 | 1.7 | 5.2 | 0.00 | 0.00 | 0.00 | 70 | 1017.1 |
| 20260505094909 | 69 | 136 | 1.7 | 2.6 | 0.00 | 0.00 | 0.00 | 68 | 1017.1 |
| 20260505094411 | 69 | 118 | 1.7 | 2.6 | 0.00 | 0.00 | 0.00 | 69 | 1017.2 |
| 20260505093409 | 69 | 139 | 1.7 | 2.6 | 0.00 | 0.00 | 0.00 | 67 | 1017.1 |
| 20260505092909 | 69 | 114 | 1.7 | 2.6 | 0.00 | 0.00 | 0.00 | 67 | 1017.0 |
| 20260505092408 | 69 | 116 | 1.7 | 2.6 | 0.00 | 0.00 | 0.00 | 67 | 1017.0 |